Year,Month,Day,Hour,Minute,Value (Times are PST for windspeed in km/hr)
2018,08,31,00,00,1.20
2018,08,31,00,01,1.30
2018,08,31,00,02,1.50
2018,08,31,00,03,2.00
2018,08,31,00,04,1.00
2018,08,31,00,05,1.00
2018,08,31,00,06,0.40
2018,08,31,00,07,0.30
2018,08,31,00,08,0.80
2018,08,31,00,09,1.20
2018,08,31,00,10,1.20
2018,08,31,00,11,0.90
2018,08,31,00,12,0.40
2018,08,31,00,13,0.10
2018,08,31,00,14,0.00
2018,08,31,00,15,0.30
2018,08,31,00,16,0.00
2018,08,31,00,17,0.00
2018,08,31,00,18,0.00
2018,08,31,00,19,0.00
2018,08,31,00,20,0.00
2018,08,31,00,21,0.00
2018,08,31,00,22,0.40
2018,08,31,00,23,0.40
2018,08,31,00,24,0.00
2018,08,31,00,25,0.10
2018,08,31,00,26,0.00
2018,08,31,00,27,0.00
2018,08,31,00,28,1.80
2018,08,31,00,29,1.30
2018,08,31,00,30,2.00
2018,08,31,00,31,1.90
2018,08,31,00,32,1.70
2018,08,31,00,33,0.30
2018,08,31,00,34,0.40
2018,08,31,00,35,1.20
2018,08,31,00,36,1.20
2018,08,31,00,37,2.30
2018,08,31,00,38,2.20
2018,08,31,00,39,2.40
2018,08,31,00,40,1.10
2018,08,31,00,41,2.00
2018,08,31,00,42,2.10
2018,08,31,00,43,2.70
2018,08,31,00,44,3.40
2018,08,31,00,45,3.90
2018,08,31,00,46,1.60
2018,08,31,00,47,1.80
2018,08,31,00,48,2.30
2018,08,31,00,49,1.90
2018,08,31,00,50,1.80
2018,08,31,00,51,2.20
2018,08,31,00,52,2.20
2018,08,31,00,53,2.90
2018,08,31,00,54,1.90
2018,08,31,00,55,1.90
2018,08,31,00,56,3.00
2018,08,31,00,57,3.30
2018,08,31,00,58,3.80
2018,08,31,00,59,1.60
2018,08,31,01,00,2.70
2018,08,31,01,01,4.50
2018,08,31,01,02,2.20
2018,08,31,01,03,1.10
2018,08,31,01,04,2.90
2018,08,31,01,05,2.20
2018,08,31,01,06,1.10
2018,08,31,01,07,3.00
2018,08,31,01,08,3.20
2018,08,31,01,09,3.20
2018,08,31,01,10,3.30
2018,08,31,01,11,2.80
2018,08,31,01,12,3.00
2018,08,31,01,13,3.70
2018,08,31,01,14,2.70
2018,08,31,01,15,2.60
2018,08,31,01,16,3.60
2018,08,31,01,17,3.80
2018,08,31,01,18,3.10
2018,08,31,01,19,2.60
2018,08,31,01,20,2.70
2018,08,31,01,21,3.30
2018,08,31,01,22,1.80
2018,08,31,01,23,1.30
2018,08,31,01,24,1.70
2018,08,31,01,25,1.20
2018,08,31,01,26,2.40
2018,08,31,01,27,1.60
2018,08,31,01,28,2.40
2018,08,31,01,29,3.20
2018,08,31,01,30,3.30
2018,08,31,01,31,2.50
2018,08,31,01,32,2.70
2018,08,31,01,33,0.90
2018,08,31,01,34,1.40
2018,08,31,01,35,0.10
2018,08,31,01,36,2.40
2018,08,31,01,37,3.60
2018,08,31,01,38,4.20
2018,08,31,01,39,2.70
2018,08,31,01,40,2.20
2018,08,31,01,41,2.00
2018,08,31,01,42,1.20
2018,08,31,01,43,0.90
2018,08,31,01,44,3.70
2018,08,31,01,45,2.00
2018,08,31,01,46,0.60
2018,08,31,01,47,0.10
2018,08,31,01,48,0.50
2018,08,31,01,49,2.90
2018,08,31,01,50,1.60
2018,08,31,01,51,1.20
2018,08,31,01,52,2.60
2018,08,31,01,53,2.20
2018,08,31,01,54,3.90
2018,08,31,01,55,2.00
2018,08,31,01,56,1.80
2018,08,31,01,57,2.70
2018,08,31,01,58,2.20
2018,08,31,01,59,3.30
2018,08,31,02,00,3.50
2018,08,31,02,01,3.00
2018,08,31,02,02,3.00
2018,08,31,02,03,2.10
2018,08,31,02,04,2.20
2018,08,31,02,05,1.60
2018,08,31,02,06,0.70
2018,08,31,02,07,1.80
2018,08,31,02,08,1.70
2018,08,31,02,09,0.00
2018,08,31,02,10,0.20
2018,08,31,02,11,0.70
2018,08,31,02,12,0.00
2018,08,31,02,13,1.10
2018,08,31,02,14,1.30
2018,08,31,02,15,2.00
2018,08,31,02,16,0.50
2018,08,31,02,17,1.20
2018,08,31,02,18,1.40
2018,08,31,02,19,0.60
2018,08,31,02,20,1.60
2018,08,31,02,21,1.60
2018,08,31,02,22,1.60
2018,08,31,02,23,1.60
2018,08,31,02,24,1.60
2018,08,31,02,25,1.30
2018,08,31,02,26,1.50
2018,08,31,02,27,1.20
2018,08,31,02,28,2.40
2018,08,31,02,29,0.30
2018,08,31,02,30,1.20
2018,08,31,02,31,2.30
2018,08,31,02,32,2.20
2018,08,31,02,33,2.50
2018,08,31,02,34,2.70
2018,08,31,02,35,1.30
2018,08,31,02,36,0.40
2018,08,31,02,37,0.40
2018,08,31,02,38,0.30
2018,08,31,02,39,0.10
2018,08,31,02,40,0.10
2018,08,31,02,41,1.80
2018,08,31,02,42,1.20
2018,08,31,02,43,0.00
2018,08,31,02,44,1.80
2018,08,31,02,45,2.40
2018,08,31,02,46,1.50
2018,08,31,02,47,0.90
2018,08,31,02,48,0.00
2018,08,31,02,49,0.00
2018,08,31,02,50,0.00
2018,08,31,02,51,0.00
2018,08,31,02,52,0.40
2018,08,31,02,53,0.50
2018,08,31,02,54,0.00
2018,08,31,02,55,0.10
2018,08,31,02,56,1.10
2018,08,31,02,57,1.20
2018,08,31,02,58,0.10
2018,08,31,02,59,0.00
2018,08,31,03,00,0.20
2018,08,31,03,01,0.30
2018,08,31,03,02,0.10
2018,08,31,03,03,1.10
2018,08,31,03,04,0.80
2018,08,31,03,05,1.20
2018,08,31,03,06,0.20
2018,08,31,03,07,0.00
2018,08,31,03,08,0.00
2018,08,31,03,09,0.00
2018,08,31,03,10,0.00
2018,08,31,03,11,0.00
2018,08,31,03,12,0.00
2018,08,31,03,13,0.00
2018,08,31,03,14,0.00
2018,08,31,03,15,0.30
2018,08,31,03,16,1.00
2018,08,31,03,17,0.80
2018,08,31,03,18,0.50
2018,08,31,03,19,0.30
2018,08,31,03,20,0.20
2018,08,31,03,21,0.10
2018,08,31,03,22,0.00
2018,08,31,03,23,0.00
2018,08,31,03,24,0.00
2018,08,31,03,25,0.00
2018,08,31,03,26,0.30
2018,08,31,03,27,1.10
2018,08,31,03,28,1.30
2018,08,31,03,29,2.00
2018,08,31,03,30,2.00
2018,08,31,03,31,0.60
2018,08,31,03,32,0.60
2018,08,31,03,33,1.70
2018,08,31,03,34,1.80
2018,08,31,03,35,0.70
2018,08,31,03,36,0.00
2018,08,31,03,37,0.70
2018,08,31,03,38,0.00
2018,08,31,03,39,0.20
2018,08,31,03,40,1.30
2018,08,31,03,41,1.30
2018,08,31,03,42,0.40
2018,08,31,03,43,0.10
2018,08,31,03,44,0.30
2018,08,31,03,45,0.00
2018,08,31,03,46,0.00
2018,08,31,03,47,1.20
2018,08,31,03,48,1.50
2018,08,31,03,49,0.50
2018,08,31,03,50,0.10
2018,08,31,03,51,0.00
2018,08,31,03,52,0.30
2018,08,31,03,53,1.70
2018,08,31,03,54,0.80
2018,08,31,03,55,0.70
2018,08,31,03,56,1.20
2018,08,31,03,57,0.60
2018,08,31,03,58,0.00
2018,08,31,03,59,0.00
2018,08,31,04,00,0.00
2018,08,31,04,01,0.10
2018,08,31,04,02,0.00
2018,08,31,04,03,0.70
2018,08,31,04,04,1.60
2018,08,31,04,05,2.20
2018,08,31,04,06,2.80
2018,08,31,04,07,1.40
2018,08,31,04,08,0.30
2018,08,31,04,09,0.00
2018,08,31,04,10,0.10
2018,08,31,04,11,0.00
2018,08,31,04,12,0.00
2018,08,31,04,13,0.00
2018,08,31,04,14,0.00
2018,08,31,04,15,0.00
2018,08,31,04,16,1.20
2018,08,31,04,17,1.30
2018,08,31,04,18,1.60
2018,08,31,04,19,2.30
2018,08,31,04,20,3.00
2018,08,31,04,21,2.40
2018,08,31,04,22,2.80
2018,08,31,04,23,1.80
2018,08,31,04,24,2.10
2018,08,31,04,25,1.20
2018,08,31,04,26,1.20
2018,08,31,04,27,2.20
2018,08,31,04,28,1.50
2018,08,31,04,29,0.20
2018,08,31,04,30,0.80
2018,08,31,04,31,0.20
2018,08,31,04,32,0.40
2018,08,31,04,33,0.50
2018,08,31,04,34,0.10
2018,08,31,04,35,0.00
2018,08,31,04,36,0.00
2018,08,31,04,37,0.00
2018,08,31,04,38,0.00
2018,08,31,04,39,0.00
2018,08,31,04,40,0.10
2018,08,31,04,41,0.10
2018,08,31,04,42,0.30
2018,08,31,04,43,0.40
2018,08,31,04,44,0.90
2018,08,31,04,45,1.80
2018,08,31,04,46,0.30
2018,08,31,04,47,0.00
2018,08,31,04,48,0.20
2018,08,31,04,49,0.90
2018,08,31,04,50,1.30
2018,08,31,04,51,1.70
2018,08,31,04,52,0.80
2018,08,31,04,53,1.20
2018,08,31,04,54,1.20
2018,08,31,04,55,0.90
2018,08,31,04,56,0.30
2018,08,31,04,57,0.30
2018,08,31,04,58,0.90
2018,08,31,04,59,1.30
2018,08,31,05,00,0.90
2018,08,31,05,01,0.50
2018,08,31,05,02,0.80
2018,08,31,05,03,0.70
2018,08,31,05,04,0.20
2018,08,31,05,05,0.00
2018,08,31,05,06,0.00
2018,08,31,05,07,0.00
2018,08,31,05,08,0.00
2018,08,31,05,09,0.50
2018,08,31,05,10,1.30
2018,08,31,05,11,0.90
2018,08,31,05,12,0.10
2018,08,31,05,13,1.00
2018,08,31,05,14,1.00
2018,08,31,05,15,0.80
2018,08,31,05,16,0.90
2018,08,31,05,17,1.20
2018,08,31,05,18,0.10
2018,08,31,05,19,0.00
2018,08,31,05,20,0.30
2018,08,31,05,21,0.90
2018,08,31,05,22,1.30
2018,08,31,05,23,1.20
2018,08,31,05,24,0.50
2018,08,31,05,25,0.40
2018,08,31,05,26,0.00
2018,08,31,05,27,0.00
2018,08,31,05,28,0.00
2018,08,31,05,29,0.00
2018,08,31,05,30,0.00
2018,08,31,05,31,0.00
2018,08,31,05,32,0.00
2018,08,31,05,33,0.00
2018,08,31,05,34,0.80
2018,08,31,05,35,1.90
2018,08,31,05,36,1.20
2018,08,31,05,37,2.10
2018,08,31,05,38,1.60
2018,08,31,05,39,0.40
2018,08,31,05,40,0.70
2018,08,31,05,41,1.10
2018,08,31,05,42,0.20
2018,08,31,05,43,0.00
2018,08,31,05,44,0.10
2018,08,31,05,45,0.00
2018,08,31,05,46,0.00
2018,08,31,05,47,0.00
2018,08,31,05,48,0.00
2018,08,31,05,49,0.00
2018,08,31,05,50,0.00
2018,08,31,05,51,0.00
2018,08,31,05,52,0.00
2018,08,31,05,53,0.00
2018,08,31,05,54,0.00
2018,08,31,05,55,0.00
2018,08,31,05,56,0.30
2018,08,31,05,57,0.70
2018,08,31,05,58,1.00
2018,08,31,05,59,0.60
2018,08,31,06,00,0.00
2018,08,31,06,01,0.00
2018,08,31,06,02,0.00
2018,08,31,06,03,0.00
2018,08,31,06,04,0.00
2018,08,31,06,05,0.00
2018,08,31,06,06,0.60
2018,08,31,06,07,0.40
2018,08,31,06,08,0.40
2018,08,31,06,09,0.00
2018,08,31,06,10,0.30
2018,08,31,06,11,0.10
2018,08,31,06,12,0.00
2018,08,31,06,13,0.00
2018,08,31,06,14,0.20
2018,08,31,06,15,0.20
2018,08,31,06,16,0.00
2018,08,31,06,17,0.00
2018,08,31,06,18,0.00
2018,08,31,06,19,0.00
2018,08,31,06,20,0.10
2018,08,31,06,21,0.60
2018,08,31,06,22,0.80
2018,08,31,06,23,0.90
2018,08,31,06,24,0.90
2018,08,31,06,25,0.20
2018,08,31,06,26,0.10
2018,08,31,06,27,0.20
2018,08,31,06,28,0.70
2018,08,31,06,29,0.80
2018,08,31,06,30,1.30
2018,08,31,06,31,1.00
2018,08,31,06,32,0.20
2018,08,31,06,33,0.00
2018,08,31,06,34,0.10
2018,08,31,06,35,0.40
2018,08,31,06,36,0.60
2018,08,31,06,37,0.40
2018,08,31,06,38,0.90
2018,08,31,06,39,0.20
2018,08,31,06,40,0.00
2018,08,31,06,41,0.20
2018,08,31,06,42,0.70
2018,08,31,06,43,0.90
2018,08,31,06,44,1.30
2018,08,31,06,45,1.90
2018,08,31,06,46,2.30
2018,08,31,06,47,1.10
2018,08,31,06,48,0.60
2018,08,31,06,49,0.50
2018,08,31,06,50,0.20
2018,08,31,06,51,0.90
2018,08,31,06,52,0.50
2018,08,31,06,53,0.00
2018,08,31,06,54,0.00
2018,08,31,06,55,0.00
2018,08,31,06,56,0.20
2018,08,31,06,57,0.70
2018,08,31,06,58,1.20
2018,08,31,06,59,1.60
2018,08,31,07,00,1.70
2018,08,31,07,01,1.60
2018,08,31,07,02,1.10
2018,08,31,07,03,1.60
2018,08,31,07,04,1.60
2018,08,31,07,05,1.50
2018,08,31,07,06,1.20
2018,08,31,07,07,1.00
2018,08,31,07,08,1.10
2018,08,31,07,09,1.90
2018,08,31,07,10,1.90
2018,08,31,07,11,1.00
2018,08,31,07,12,1.00
2018,08,31,07,13,1.50
2018,08,31,07,14,1.30
2018,08,31,07,15,0.20
2018,08,31,07,16,0.20
2018,08,31,07,17,0.40
2018,08,31,07,18,0.00
2018,08,31,07,19,0.00
2018,08,31,07,20,0.00
2018,08,31,07,21,0.00
2018,08,31,07,22,0.00
2018,08,31,07,23,0.00
2018,08,31,07,24,0.00
2018,08,31,07,25,0.00
2018,08,31,07,26,0.00
2018,08,31,07,27,0.00
2018,08,31,07,28,0.00
2018,08,31,07,29,0.00
2018,08,31,07,30,0.00
2018,08,31,07,31,0.00
2018,08,31,07,32,0.00
2018,08,31,07,33,0.10
2018,08,31,07,34,0.20
2018,08,31,07,35,0.70
2018,08,31,07,36,0.60
2018,08,31,07,37,0.90
2018,08,31,07,38,0.60
2018,08,31,07,39,0.10
2018,08,31,07,40,0.00
2018,08,31,07,41,0.00
2018,08,31,07,42,1.30
2018,08,31,07,43,1.70
2018,08,31,07,44,0.70
2018,08,31,07,45,1.00
2018,08,31,07,46,0.80
2018,08,31,07,47,0.80
2018,08,31,07,48,0.10
2018,08,31,07,49,0.00
2018,08,31,07,50,0.40
2018,08,31,07,51,0.60
2018,08,31,07,52,0.10
2018,08,31,07,53,0.60
2018,08,31,07,54,1.20
2018,08,31,07,55,0.70
2018,08,31,07,56,1.20
2018,08,31,07,57,1.00
2018,08,31,07,58,0.80
2018,08,31,07,59,1.10
2018,08,31,08,00,2.00
2018,08,31,08,01,1.80
2018,08,31,08,02,0.90
2018,08,31,08,03,0.20
2018,08,31,08,04,0.00
2018,08,31,08,05,0.20
2018,08,31,08,06,1.30
2018,08,31,08,07,1.30
2018,08,31,08,08,0.10
2018,08,31,08,09,0.70
2018,08,31,08,10,1.00
2018,08,31,08,11,1.60
2018,08,31,08,12,0.60
2018,08,31,08,13,1.00
2018,08,31,08,14,0.40
2018,08,31,08,15,0.90
2018,08,31,08,16,2.10
2018,08,31,08,17,0.60
2018,08,31,08,18,1.80
2018,08,31,08,19,1.90
2018,08,31,08,20,0.90
2018,08,31,08,21,0.40
2018,08,31,08,22,0.80
2018,08,31,08,23,0.70
2018,08,31,08,24,0.10
2018,08,31,08,25,0.20
2018,08,31,08,26,0.10
2018,08,31,08,27,0.10
2018,08,31,08,28,0.00
2018,08,31,08,29,0.80
2018,08,31,08,30,0.70
2018,08,31,08,31,0.30
2018,08,31,08,32,0.30
2018,08,31,08,33,0.90
2018,08,31,08,34,2.30
2018,08,31,08,35,2.30
2018,08,31,08,36,1.30
2018,08,31,08,37,1.40
2018,08,31,08,38,0.60
2018,08,31,08,39,1.30
2018,08,31,08,40,0.90
2018,08,31,08,41,0.90
2018,08,31,08,42,0.20
2018,08,31,08,43,0.90
2018,08,31,08,44,1.20
2018,08,31,08,45,1.90
2018,08,31,08,46,1.70
2018,08,31,08,47,0.20
2018,08,31,08,48,0.20
2018,08,31,08,49,0.00
2018,08,31,08,50,0.00
2018,08,31,08,51,0.20
2018,08,31,08,52,0.40
2018,08,31,08,53,0.10
2018,08,31,08,54,0.20
2018,08,31,08,55,0.50
2018,08,31,08,56,0.20
2018,08,31,08,57,0.50
2018,08,31,08,58,0.20
2018,08,31,08,59,2.30
2018,08,31,09,00,1.60
2018,08,31,09,01,0.20
2018,08,31,09,02,1.00
2018,08,31,09,03,1.90
2018,08,31,09,04,0.40
2018,08,31,09,05,0.40
2018,08,31,09,06,0.60
2018,08,31,09,07,3.30
2018,08,31,09,08,2.40
2018,08,31,09,09,0.30
2018,08,31,09,10,1.10
2018,08,31,09,11,2.20
2018,08,31,09,12,2.20
2018,08,31,09,13,2.00
2018,08,31,09,14,1.70
2018,08,31,09,15,2.70
2018,08,31,09,16,2.80
2018,08,31,09,17,2.00
2018,08,31,09,18,1.20
2018,08,31,09,19,1.00
2018,08,31,09,20,2.40
2018,08,31,09,21,1.00
2018,08,31,09,22,2.30
2018,08,31,09,23,2.40
2018,08,31,09,24,2.30
2018,08,31,09,25,2.40
2018,08,31,09,26,1.20
2018,08,31,09,27,2.20
2018,08,31,09,28,1.80
2018,08,31,09,29,1.30
2018,08,31,09,30,2.20
2018,08,31,09,31,2.90
2018,08,31,09,32,4.10
2018,08,31,09,33,0.80
2018,08,31,09,34,2.00
2018,08,31,09,35,2.30
2018,08,31,09,36,1.40
2018,08,31,09,37,0.20
2018,08,31,09,38,4.70
2018,08,31,09,39,1.80
2018,08,31,09,40,1.70
2018,08,31,09,41,2.20
2018,08,31,09,42,1.30
2018,08,31,09,43,0.90
2018,08,31,09,44,1.20
2018,08,31,09,45,2.00
2018,08,31,09,46,5.20
2018,08,31,09,47,4.80
2018,08,31,09,48,3.40
2018,08,31,09,49,3.30
2018,08,31,09,50,4.00
2018,08,31,09,51,2.30
2018,08,31,09,52,1.30
2018,08,31,09,53,1.00
2018,08,31,09,54,2.30
2018,08,31,09,55,2.30
2018,08,31,09,56,4.70
2018,08,31,09,57,2.30
2018,08,31,09,58,1.00
2018,08,31,09,59,0.20
2018,08,31,10,00,1.60
2018,08,31,10,01,2.50
2018,08,31,10,02,1.60
2018,08,31,10,03,4.50
2018,08,31,10,04,3.60
2018,08,31,10,05,2.30
2018,08,31,10,06,1.60
2018,08,31,10,07,2.80
2018,08,31,10,08,2.70
2018,08,31,10,09,2.80
2018,08,31,10,10,3.30
2018,08,31,10,11,6.40
2018,08,31,10,12,4.70
2018,08,31,10,13,3.60
2018,08,31,10,14,2.60
2018,08,31,10,15,2.80
2018,08,31,10,16,4.70
2018,08,31,10,17,5.20
2018,08,31,10,18,4.40
2018,08,31,10,19,0.70
2018,08,31,10,20,1.20
2018,08,31,10,21,3.20
2018,08,31,10,22,1.70
2018,08,31,10,23,0.70
2018,08,31,10,24,1.30
2018,08,31,10,25,1.70
2018,08,31,10,26,3.10
2018,08,31,10,27,5.90
2018,08,31,10,28,2.70
2018,08,31,10,29,4.40
2018,08,31,10,30,5.40
2018,08,31,10,31,3.40
2018,08,31,10,32,2.70
2018,08,31,10,33,5.40
2018,08,31,10,34,7.30
2018,08,31,10,35,5.80
2018,08,31,10,36,6.90
2018,08,31,10,37,6.40
2018,08,31,10,38,5.80
2018,08,31,10,39,2.30
2018,08,31,10,40,3.90
2018,08,31,10,41,3.90
2018,08,31,10,42,5.00
2018,08,31,10,43,3.20
2018,08,31,10,44,4.20
2018,08,31,10,45,3.80
2018,08,31,10,46,3.10
2018,08,31,10,47,2.10
2018,08,31,10,48,3.70
2018,08,31,10,49,3.50
2018,08,31,10,50,4.70
2018,08,31,10,51,5.90
2018,08,31,10,52,3.30
2018,08,31,10,53,3.70
2018,08,31,10,54,4.50
2018,08,31,10,55,4.10
2018,08,31,10,56,4.80
2018,08,31,10,57,5.90
2018,08,31,10,58,4.40
2018,08,31,10,59,6.70
2018,08,31,11,00,3.20
2018,08,31,11,01,3.20
2018,08,31,11,02,6.80
2018,08,31,11,03,4.30
2018,08,31,11,04,3.20
2018,08,31,11,05,7.00
2018,08,31,11,06,5.00
2018,08,31,11,07,2.00
2018,08,31,11,08,5.40
2018,08,31,11,09,1.80
2018,08,31,11,10,2.30
2018,08,31,11,11,4.00
2018,08,31,11,12,4.40
2018,08,31,11,13,3.90
2018,08,31,11,14,4.70
2018,08,31,11,15,3.80
2018,08,31,11,16,4.50
2018,08,31,11,17,2.80
2018,08,31,11,18,3.40
2018,08,31,11,19,4.40
2018,08,31,11,20,6.10
2018,08,31,11,21,4.70
2018,08,31,11,22,2.40
2018,08,31,11,23,5.80
2018,08,31,11,24,8.10
2018,08,31,11,25,4.40
2018,08,31,11,26,7.10
2018,08,31,11,27,3.80
2018,08,31,11,28,3.90
2018,08,31,11,29,3.00
2018,08,31,11,30,4.30
2018,08,31,11,31,5.20
2018,08,31,11,32,2.20
2018,08,31,11,33,7.70
2018,08,31,11,34,5.60
2018,08,31,11,35,4.00
2018,08,31,11,36,3.40
2018,08,31,11,37,1.60
2018,08,31,11,38,2.10
2018,08,31,11,39,4.80
2018,08,31,11,40,5.00
2018,08,31,11,41,5.10
2018,08,31,11,42,3.40
2018,08,31,11,43,4.90
2018,08,31,11,44,6.20
2018,08,31,11,45,5.60
2018,08,31,11,46,6.90
2018,08,31,11,47,5.40
2018,08,31,11,48,4.70
2018,08,31,11,49,7.30
2018,08,31,11,50,3.40
2018,08,31,11,51,2.30
2018,08,31,11,52,5.30
2018,08,31,11,53,6.20
2018,08,31,11,54,7.10
2018,08,31,11,55,7.80
2018,08,31,11,56,3.90
2018,08,31,11,57,5.60
2018,08,31,11,58,4.80
2018,08,31,11,59,6.90
2018,08,31,12,00,5.60
2018,08,31,12,01,3.00
2018,08,31,12,02,3.80
2018,08,31,12,03,7.50
2018,08,31,12,04,3.80
2018,08,31,12,05,6.00
2018,08,31,12,06,5.80
2018,08,31,12,07,3.40
2018,08,31,12,08,3.60
2018,08,31,12,09,4.80
2018,08,31,12,10,4.60
2018,08,31,12,11,3.40
2018,08,31,12,12,6.70
2018,08,31,12,13,4.50
2018,08,31,12,14,2.80
2018,08,31,12,15,5.90
2018,08,31,12,16,5.20
2018,08,31,12,17,7.70
2018,08,31,12,18,1.70
2018,08,31,12,19,2.40
2018,08,31,12,20,3.50
2018,08,31,12,21,5.00
2018,08,31,12,22,5.40
2018,08,31,12,23,4.30
2018,08,31,12,24,0.90
2018,08,31,12,25,2.80
2018,08,31,12,26,2.40
2018,08,31,12,27,6.30
2018,08,31,12,28,2.30
2018,08,31,12,29,1.60
2018,08,31,12,30,2.80
2018,08,31,12,31,7.30
2018,08,31,12,32,10.00
2018,08,31,12,33,6.40
2018,08,31,12,34,6.30
2018,08,31,12,35,7.40
2018,08,31,12,36,5.30
2018,08,31,12,37,5.10
2018,08,31,12,38,4.00
2018,08,31,12,39,5.30
2018,08,31,12,40,4.70
2018,08,31,12,41,6.00
2018,08,31,12,42,5.60
2018,08,31,12,43,5.80
2018,08,31,12,44,3.80
2018,08,31,12,45,6.60
2018,08,31,12,46,7.90
2018,08,31,12,47,6.50
2018,08,31,12,48,6.00
2018,08,31,12,49,6.50
2018,08,31,12,50,2.90
2018,08,31,12,51,5.40
2018,08,31,12,52,4.90
2018,08,31,12,53,6.20
2018,08,31,12,54,4.40
2018,08,31,12,55,5.90
2018,08,31,12,56,4.20
2018,08,31,12,57,3.80
2018,08,31,12,58,5.30
2018,08,31,12,59,6.80
2018,08,31,13,00,4.60
2018,08,31,13,01,5.20
2018,08,31,13,02,4.30
2018,08,31,13,03,8.00
2018,08,31,13,04,6.80
2018,08,31,13,05,6.60
2018,08,31,13,06,10.20
2018,08,31,13,07,4.80
2018,08,31,13,08,6.80
2018,08,31,13,09,3.40
2018,08,31,13,10,3.90
2018,08,31,13,11,4.40
2018,08,31,13,12,4.00
2018,08,31,13,13,4.20
2018,08,31,13,14,4.50
2018,08,31,13,15,6.20
2018,08,31,13,16,3.70
2018,08,31,13,17,3.70
2018,08,31,13,18,7.30
2018,08,31,13,19,3.60
2018,08,31,13,20,5.90
2018,08,31,13,21,5.20
2018,08,31,13,22,4.50
2018,08,31,13,23,6.40
2018,08,31,13,24,4.90
2018,08,31,13,25,6.20
2018,08,31,13,26,9.80
2018,08,31,13,27,6.20
2018,08,31,13,28,7.90
2018,08,31,13,29,5.00
2018,08,31,13,30,4.50
2018,08,31,13,31,8.30
2018,08,31,13,32,4.80
2018,08,31,13,33,3.10
2018,08,31,13,34,3.00
2018,08,31,13,35,7.30
2018,08,31,13,36,7.90
2018,08,31,13,37,8.90
2018,08,31,13,38,4.70
2018,08,31,13,39,4.40
2018,08,31,13,40,5.20
2018,08,31,13,41,3.10
2018,08,31,13,42,2.60
2018,08,31,13,43,12.00
2018,08,31,13,44,7.50
2018,08,31,13,45,3.10
2018,08,31,13,46,6.30
2018,08,31,13,47,4.40
2018,08,31,13,48,2.30
2018,08,31,13,49,4.20
2018,08,31,13,50,6.30
2018,08,31,13,51,9.20
2018,08,31,13,52,9.00
2018,08,31,13,53,7.80
2018,08,31,13,54,8.90
2018,08,31,13,55,4.90
2018,08,31,13,56,5.60
2018,08,31,13,57,10.60
2018,08,31,13,58,6.60
2018,08,31,13,59,5.60
2018,08,31,14,00,7.70
2018,08,31,14,01,7.70
2018,08,31,14,02,12.70
2018,08,31,14,03,10.10
2018,08,31,14,04,6.00
2018,08,31,14,05,8.40
2018,08,31,14,06,8.90
2018,08,31,14,07,10.20
2018,08,31,14,08,7.30
2018,08,31,14,09,5.60
2018,08,31,14,10,5.30
2018,08,31,14,11,7.00
2018,08,31,14,12,6.90
2018,08,31,14,13,14.40
2018,08,31,14,14,5.90
2018,08,31,14,15,10.10
2018,08,31,14,16,7.90
2018,08,31,14,17,9.60
2018,08,31,14,18,8.30
2018,08,31,14,19,12.00
2018,08,31,14,20,11.30
2018,08,31,14,21,9.30
2018,08,31,14,22,6.20
2018,08,31,14,23,3.40
2018,08,31,14,24,5.40
2018,08,31,14,25,6.70
2018,08,31,14,26,9.00
2018,08,31,14,27,9.50
2018,08,31,14,28,5.00
2018,08,31,14,29,6.10
2018,08,31,14,30,4.90
2018,08,31,14,31,6.30
2018,08,31,14,32,8.80
2018,08,31,14,33,5.20
2018,08,31,14,34,3.70
2018,08,31,14,35,6.90
2018,08,31,14,36,6.20
2018,08,31,14,37,6.00
2018,08,31,14,38,3.00
2018,08,31,14,39,5.20
2018,08,31,14,40,9.10
2018,08,31,14,41,6.20
2018,08,31,14,42,9.10
2018,08,31,14,43,12.50
2018,08,31,14,44,10.00
2018,08,31,14,45,7.40
2018,08,31,14,46,7.00
2018,08,31,14,47,6.90
2018,08,31,14,48,7.30
2018,08,31,14,49,6.80
2018,08,31,14,50,11.00
2018,08,31,14,51,2.60
2018,08,31,14,52,5.90
2018,08,31,14,53,7.10
2018,08,31,14,54,1.60
2018,08,31,14,55,0.70
2018,08,31,14,56,2.90
2018,08,31,14,57,1.90
2018,08,31,14,58,2.60
2018,08,31,14,59,6.20
2018,08,31,15,00,6.20
2018,08,31,15,01,2.80
2018,08,31,15,02,4.00
2018,08,31,15,03,4.90
2018,08,31,15,04,5.70
2018,08,31,15,05,6.80
2018,08,31,15,06,7.70
2018,08,31,15,07,5.50
2018,08,31,15,08,6.30
2018,08,31,15,09,9.80
2018,08,31,15,10,3.60
2018,08,31,15,11,2.20
2018,08,31,15,12,1.90
2018,08,31,15,13,0.80
2018,08,31,15,14,2.10
2018,08,31,15,15,2.70
2018,08,31,15,16,1.70
2018,08,31,15,17,2.70
2018,08,31,15,18,3.70
2018,08,31,15,19,2.10
2018,08,31,15,20,5.00
2018,08,31,15,21,3.00
2018,08,31,15,22,2.70
2018,08,31,15,23,4.50
2018,08,31,15,24,1.80
2018,08,31,15,25,2.40
2018,08,31,15,26,4.70
2018,08,31,15,27,2.70
2018,08,31,15,28,3.50
2018,08,31,15,29,5.30
2018,08,31,15,30,2.80
2018,08,31,15,31,5.30
2018,08,31,15,32,4.90
2018,08,31,15,33,2.40
2018,08,31,15,34,5.70
2018,08,31,15,35,7.30
2018,08,31,15,36,4.20
2018,08,31,15,37,8.30
2018,08,31,15,38,7.20
2018,08,31,15,39,8.00
2018,08,31,15,40,2.90
2018,08,31,15,41,2.60
2018,08,31,15,42,3.40
2018,08,31,15,43,2.60
2018,08,31,15,44,6.60
2018,08,31,15,45,7.90
2018,08,31,15,46,1.30
2018,08,31,15,47,2.80
2018,08,31,15,48,5.60
2018,08,31,15,49,3.80
2018,08,31,15,50,3.80
2018,08,31,15,51,8.70
2018,08,31,15,52,6.60
2018,08,31,15,53,5.90
2018,08,31,15,54,4.00
2018,08,31,15,55,5.20
2018,08,31,15,56,2.60
2018,08,31,15,57,6.60
2018,08,31,15,58,4.30
2018,08,31,15,59,5.10
2018,08,31,16,00,4.00
2018,08,31,16,01,5.00
2018,08,31,16,02,3.10
2018,08,31,16,03,6.20
2018,08,31,16,04,3.50
2018,08,31,16,05,7.70
2018,08,31,16,06,6.60
2018,08,31,16,07,4.30
2018,08,31,16,08,7.00
2018,08,31,16,09,6.50
2018,08,31,16,10,1.80
2018,08,31,16,11,1.90
2018,08,31,16,12,3.10
2018,08,31,16,13,4.40
2018,08,31,16,14,4.00
2018,08,31,16,15,2.30
2018,08,31,16,16,1.20
2018,08,31,16,17,5.20
2018,08,31,16,18,4.70
2018,08,31,16,19,5.00
2018,08,31,16,20,5.20
2018,08,31,16,21,5.30
2018,08,31,16,22,3.80
2018,08,31,16,23,6.40
2018,08,31,16,24,3.10
2018,08,31,16,25,4.60
2018,08,31,16,26,6.70
2018,08,31,16,27,7.30
2018,08,31,16,28,9.10
2018,08,31,16,29,9.10
2018,08,31,16,30,5.90
2018,08,31,16,31,5.60
2018,08,31,16,32,4.20
2018,08,31,16,33,3.80
2018,08,31,16,34,5.90
2018,08,31,16,35,1.30
2018,08,31,16,36,4.00
2018,08,31,16,37,6.20
2018,08,31,16,38,3.60
2018,08,31,16,39,6.40
2018,08,31,16,40,4.80
2018,08,31,16,41,4.10
2018,08,31,16,42,1.90
2018,08,31,16,43,2.60
2018,08,31,16,44,5.90
2018,08,31,16,45,5.60
2018,08,31,16,46,5.30
2018,08,31,16,47,5.30
2018,08,31,16,48,4.40
2018,08,31,16,49,5.70
2018,08,31,16,50,6.00
2018,08,31,16,51,3.40
2018,08,31,16,52,3.90
2018,08,31,16,53,5.80
2018,08,31,16,54,4.20
2018,08,31,16,55,2.20
2018,08,31,16,56,5.50
2018,08,31,16,57,4.30
2018,08,31,16,58,6.00
2018,08,31,16,59,5.10
2018,08,31,17,00,4.50
2018,08,31,17,01,5.20
2018,08,31,17,02,4.90
2018,08,31,17,03,8.80
2018,08,31,17,04,5.00
2018,08,31,17,05,6.90
2018,08,31,17,06,5.40
2018,08,31,17,07,3.90
2018,08,31,17,08,1.80
2018,08,31,17,09,1.80
2018,08,31,17,10,2.60
2018,08,31,17,11,4.30
2018,08,31,17,12,5.10
2018,08,31,17,13,5.10
2018,08,31,17,14,6.70
2018,08,31,17,15,6.80
2018,08,31,17,16,3.10
2018,08,31,17,17,3.50
2018,08,31,17,18,4.70
2018,08,31,17,19,3.90
2018,08,31,17,20,3.50
2018,08,31,17,21,4.50
2018,08,31,17,22,5.00
2018,08,31,17,23,9.00
2018,08,31,17,24,9.70
2018,08,31,17,25,10.20
2018,08,31,17,26,6.60
2018,08,31,17,27,4.70
2018,08,31,17,28,3.40
2018,08,31,17,29,4.00
2018,08,31,17,30,5.10
2018,08,31,17,31,2.90
2018,08,31,17,32,2.20
2018,08,31,17,33,2.70
2018,08,31,17,34,2.00
2018,08,31,17,35,3.70
2018,08,31,17,36,4.10
2018,08,31,17,37,5.90
2018,08,31,17,38,6.90
2018,08,31,17,39,7.50
2018,08,31,17,40,1.80
2018,08,31,17,41,3.20
2018,08,31,17,42,3.10
2018,08,31,17,43,2.20
2018,08,31,17,44,4.30
2018,08,31,17,45,1.70
2018,08,31,17,46,3.80
2018,08,31,17,47,5.00
2018,08,31,17,48,2.20
2018,08,31,17,49,2.50
2018,08,31,17,50,4.50
2018,08,31,17,51,3.40
2018,08,31,17,52,4.70
2018,08,31,17,53,5.70
2018,08,31,17,54,8.10
2018,08,31,17,55,4.40
2018,08,31,17,56,4.00
2018,08,31,17,57,3.50
2018,08,31,17,58,3.30
2018,08,31,17,59,4.30
2018,08,31,18,00,5.40
2018,08,31,18,01,10.40
2018,08,31,18,02,7.20
2018,08,31,18,03,4.10
2018,08,31,18,04,6.50
2018,08,31,18,05,5.00